Overview Statistics Trail Chart Weather Telemetry Raw packets
 

This is the latest recevied weather packets stored in our database for station/object W7DG. If no packets are shown the sender has not sent any weather packets the latest 10 day(s).

<< 17 18 19 20 21 22 23 >>
Time Temp. Humidity Pressure Rain* Wind** Luminosity Snow
1788240250 15° C 88% 1009.8 hPa 0 mm - - -
1788239889 15° C 86% 1009.7 hPa 0 mm - - -
1788239350 16.11° C 83% 1009.7 hPa 0 mm - - -
1788238989 17.22° C 80% 1009.5 hPa 0 mm - - -
1788238450 17.78° C 78% 1009.4 hPa 0 mm - - -
1788238089 17.78° C 78% 1009.5 hPa 0 mm - - -
1788237551 17.22° C 78% 1009.5 hPa 0 mm - - -
1788237189 17.78° C 78% 1009.6 hPa 0 mm - - -
1788236650 17.78° C 79% 1009.7 hPa 0 mm - - -
1788236290 17.78° C 79% 1009.8 hPa 0 mm - - -
1788235758 17.78° C 80% 1009.9 hPa 0 mm - - -
1788235390 17.78° C 79% 1009.7 hPa 0 mm - - -
1788234851 17.78° C 78% 1009.6 hPa 0 mm - - -
1788234490 18.33° C 78% 1009.5 hPa 0 mm - - -
1788233951 18.33° C 77% 1009.3 hPa 0 mm - - -
1788233590 18.89° C 76% 1009.3 hPa 0 mm - - -
1788182651 11.67° C 89% 1013.3 hPa 0 mm - - -
1788182290 11.67° C 89% 1013.3 hPa 0 mm - - -
1788181751 11.67° C 88% 1013.4 hPa 0 mm - - -
1788181390 11.67° C 88% 1013.4 hPa 0 mm - - -
1788180851 11.67° C 88% 1013.5 hPa 0 mm - - -
1788180490 11.67° C 88% 1013.5 hPa 0 mm - - -
1788179951 11.67° C 88% 1013.6 hPa 0 mm - - -
1788179590 12.22° C 87% 1013.6 hPa 0 mm - - -
1788179051 12.22° C 87% 1013.7 hPa 0 mm - - -

* Rain latest hour (hover to see other rain measurements)
** Current wind speed in m/s (hover to see current wind gust speed)